Time,TemperatureF,DewpointF,PressureIn,WindDirection,WindDirectionDegrees,WindSpeedMPH,WindSpeedGustMPH,Humidity,HourlyPrecipIn,Conditions,Clouds,dailyrainin,SoftwareType,DateUTC
2013-01-05 04:07:00,23.2,19.9,30.51,North,0,0.0,0.0,87,0.00,,,0.00,WUHU216HW,2013-01-05 10:07:00,
2013-01-05 04:12:00,23.4,20.1,30.51,North,0,0.0,0.0,87,0.00,,,0.00,WUHU216HW,2013-01-05 10:12:00,
2013-01-05 04:17:00,23.4,20.1,30.51,North,0,0.0,0.0,87,0.00,,,0.00,WUHU216HW,2013-01-05 10:17:00,
2013-01-05 04:22:00,23.4,20.1,30.51,North,0,0.0,0.0,87,0.00,,,0.00,WUHU216HW,2013-01-05 10:22:00,
2013-01-05 04:27:00,23.0,19.2,30.51,North,0,0.0,0.0,85,0.00,,,0.00,WUHU216HW,2013-01-05 10:27:00,
2013-01-05 04:32:00,22.5,18.6,30.51,North,0,0.0,0.0,85,0.00,,,0.00,WUHU216HW,2013-01-05 10:32:00,
2013-01-05 04:37:00,22.1,18.3,30.50,North,0,0.0,0.0,85,0.00,,,0.00,WUHU216HW,2013-01-05 10:37:00,
2013-01-05 04:42:00,22.0,18.1,30.51,North,0,0.0,0.0,85,0.00,,,0.00,WUHU216HW,2013-01-05 10:42:00,
2013-01-05 04:47:00,21.8,18.2,30.51,North,0,0.0,0.0,86,0.00,,,0.00,WUHU216HW,2013-01-05 10:47:00,
2013-01-05 04:52:00,21.6,18.0,30.51,North,0,0.0,0.0,86,0.00,,,0.00,WUHU216HW,2013-01-05 10:52:00,
2013-01-05 04:57:00,21.4,17.8,30.50,North,0,0.0,0.0,86,0.00,,,0.00,WUHU216HW,2013-01-05 10:57:00,
2013-01-05 05:02:00,21.4,17.8,30.50,North,0,0.0,0.0,86,0.00,,,0.00,WUHU216HW,2013-01-05 11:02:00,
2013-01-05 05:07:00,21.2,17.6,30.50,North,0,0.0,0.0,86,0.00,,,0.00,WUHU216HW,2013-01-05 11:07:00,
2013-01-05 05:12:00,21.1,17.5,30.50,North,0,0.0,0.0,86,0.00,,,0.00,WUHU216HW,2013-01-05 11:12:00,
2013-01-05 05:17:00,20.9,17.3,30.50,North,0,0.0,0.0,86,0.00,,,0.00,WUHU216HW,2013-01-05 11:17:00,
2013-01-05 05:22:00,20.9,17.3,30.50,North,0,0.0,0.0,86,0.00,,,0.00,WUHU216HW,2013-01-05 11:22:00,
2013-01-05 05:27:00,20.9,17.3,30.50,North,0,0.0,0.0,86,0.00,,,0.00,WUHU216HW,2013-01-05 11:27:00,
2013-01-05 05:32:00,20.9,17.6,30.49,North,0,0.0,0.0,87,0.00,,,0.00,WUHU216HW,2013-01-05 11:32:00,
2013-01-05 05:37:00,21.1,17.7,30.49,North,0,0.0,0.0,87,0.00,,,0.00,WUHU216HW,2013-01-05 11:37:00,
2013-01-05 05:42:00,21.2,17.9,30.49,North,0,0.0,0.0,87,0.00,,,0.00,WUHU216HW,2013-01-05 11:42:00,
2013-01-05 05:47:00,21.2,17.9,30.48,North,0,0.0,0.0,87,0.00,,,0.00,WUHU216HW,2013-01-05 11:47:00,
2013-01-05 05:52:00,21.2,17.9,30.49,North,0,0.0,0.0,87,0.00,,,0.00,WUHU216HW,2013-01-05 11:52:00,
2013-01-05 05:57:00,21.2,17.9,30.49,North,0,0.0,0.0,87,0.00,,,0.00,WUHU216HW,2013-01-05 11:57:00,
2013-01-05 06:02:00,21.1,17.7,30.49,North,0,0.0,0.0,87,0.00,,,0.00,WUHU216HW,2013-01-05 12:02:00,
2013-01-05 06:07:00,21.1,17.7,30.49,North,0,0.0,0.0,87,0.00,,,0.00,WUHU216HW,2013-01-05 12:07:00,
2013-01-05 06:12:00,21.1,17.7,30.49,North,0,0.0,0.0,87,0.00,,,0.00,WUHU216HW,2013-01-05 12:12:00,
2013-01-05 06:17:00,20.9,17.6,30.49,North,0,0.0,0.0,87,0.00,,,0.00,WUHU216HW,2013-01-05 12:17:00,
2013-01-05 06:22:00,20.9,17.6,30.49,North,0,0.0,0.0,87,0.00,,,0.00,WUHU216HW,2013-01-05 12:22:00,
2013-01-05 06:27:00,20.7,17.4,30.49,North,0,0.0,0.0,87,0.00,,,0.00,WUHU216HW,2013-01-05 12:27:00,
2013-01-05 06:32:00,20.7,17.4,30.48,North,0,0.0,0.0,87,0.00,,,0.00,WUHU216HW,2013-01-05 12:32:00,
2013-01-05 06:37:00,20.5,17.2,30.48,North,0,0.0,0.0,87,0.00,,,0.00,WUHU216HW,2013-01-05 12:37:00,
2013-01-05 06:42:00,20.5,17.2,30.48,North,0,0.0,0.0,87,0.00,,,0.00,WUHU216HW,2013-01-05 12:42:00,
2013-01-05 06:47:00,20.5,17.2,30.47,North,0,0.0,0.0,87,0.00,,,0.00,WUHU216HW,2013-01-05 12:47:00,
2013-01-05 06:52:00,20.5,17.2,30.47,North,0,0.0,0.0,87,0.00,,,0.00,WUHU216HW,2013-01-05 12:52:00,
2013-01-05 06:57:00,20.5,17.2,30.47,North,0,0.0,0.0,87,0.00,,,0.00,WUHU216HW,2013-01-05 12:57:00,
2013-01-05 07:02:00,20.7,17.4,30.47,North,0,0.0,0.0,87,0.00,,,0.00,WUHU216HW,2013-01-05 13:02:00,
2013-01-05 07:07:00,20.7,17.4,30.47,North,0,0.0,0.0,87,0.00,,,0.00,WUHU216HW,2013-01-05 13:07:00,
2013-01-05 07:12:00,20.7,17.4,30.47,North,0,0.0,0.0,87,0.00,,,0.00,WUHU216HW,2013-01-05 13:12:00,
2013-01-05 07:30:00,19.4,16.1,30.47,North,0,0.0,0.0,87,0.00,,,0.00,WUHU216HW,2013-01-05 13:30:00,
2013-01-05 07:35:00,19.3,15.9,30.48,North,0,0.0,0.0,87,0.00,,,0.00,WUHU216HW,2013-01-05 13:35:00,
2013-01-05 07:40:00,19.4,16.1,30.48,North,0,0.0,0.0,87,0.00,,,0.00,WUHU216HW,2013-01-05 13:40:00,
2013-01-05 07:45:00,19.6,16.3,30.47,North,0,0.0,0.0,87,0.00,,,0.00,WUHU216HW,2013-01-05 13:45:00,
2013-01-05 07:50:00,20.0,16.7,30.47,North,0,0.0,0.0,87,0.00,,,0.00,WUHU216HW,2013-01-05 13:50:00,
2013-01-05 07:55:00,20.5,17.2,30.47,North,0,0.0,0.0,87,0.00,,,0.00,WUHU216HW,2013-01-05 13:55:00,
2013-01-05 08:00:00,21.2,17.9,30.47,North,0,0.0,0.0,87,0.00,,,0.00,WUHU216HW,2013-01-05 14:00:00,
2013-01-05 08:05:00,21.2,17.9,30.48,North,0,0.0,0.0,87,0.00,,,0.00,WUHU216HW,2013-01-05 14:05:00,
2013-01-05 08:10:00,21.6,18.3,30.48,North,0,0.0,0.0,87,0.00,,,0.00,WUHU216HW,2013-01-05 14:10:00,
2013-01-05 08:11:00,21.6,18.3,30.48,North,0,0.0,0.0,87,0.00,,,0.00,WUHU216HW,2013-01-05 14:11:00,
2013-01-05 08:15:00,21.6,18.3,30.48,North,0,0.0,0.0,87,0.00,,,0.00,WUHU216HW,2013-01-05 14:15:00,
2013-01-05 08:20:00,21.6,18.3,30.48,North,0,0.0,0.0,87,0.00,,,0.00,WUHU216HW,2013-01-05 14:20:00,
2013-01-05 08:25:00,22.1,18.8,30.48,North,0,0.0,0.0,87,0.00,,,0.00,WUHU216HW,2013-01-05 14:25:00,
2013-01-05 08:30:00,22.1,18.8,30.48,North,0,0.0,0.0,87,0.00,,,0.00,WUHU216HW,2013-01-05 14:30:00,
2013-01-05 09:00:00,27.5,23.6,30.48,North,0,0.0,0.0,85,0.00,,,0.00,WUHU216HW,2013-01-05 15:00:00,
2013-01-05 09:05:00,27.7,23.8,30.48,North,0,0.0,0.0,85,0.00,,,0.00,WUHU216HW,2013-01-05 15:05:00,
2013-01-05 09:10:00,28.3,24.3,30.48,North,0,0.0,0.0,85,0.00,,,0.00,WUHU216HW,2013-01-05 15:10:00,
2013-01-05 09:15:00,29.0,25.0,30.47,North,0,0.0,0.0,85,0.00,,,0.00,WUHU216HW,2013-01-05 15:15:00,
2013-01-05 09:20:00,29.2,24.9,30.47,North,0,0.0,0.0,84,0.00,,,0.00,WUHU216HW,2013-01-05 15:20:00,
2013-01-05 09:25:00,29.2,24.9,30.47,North,0,0.0,0.0,84,0.00,,,0.00,WUHU216HW,2013-01-05 15:25:00,
2013-01-05 09:30:00,29.9,25.4,30.47,North,0,0.0,0.0,83,0.00,,,0.00,WUHU216HW,2013-01-05 15:30:00,
2013-01-05 09:35:00,29.7,25.2,30.47,North,0,0.0,0.0,83,0.00,,,0.00,WUHU216HW,2013-01-05 15:35:00,
2013-01-05 09:40:00,29.7,25.2,30.47,North,0,0.0,0.0,83,0.00,,,0.00,WUHU216HW,2013-01-05 15:40:00,
2013-01-05 09:45:00,29.7,25.2,30.47,North,0,0.0,0.0,83,0.01,,,0.01,WUHU216HW,2013-01-05 15:45:00,
2013-01-05 09:50:00,30.2,25.8,30.48,North,0,0.0,0.0,83,0.01,,,0.01,WUHU216HW,2013-01-05 15:50:00,
2013-01-05 09:55:00,31.0,26.5,30.47,North,0,0.0,0.0,83,0.01,,,0.01,WUHU216HW,2013-01-05 15:55:00,
2013-01-05 10:00:00,31.5,26.6,30.47,North,0,0.0,0.0,82,0.01,,,0.01,WUHU216HW,2013-01-05 16:00:00,
2013-01-05 10:05:00,32.0,27.2,30.47,North,0,0.0,0.0,82,0.01,,,0.01,WUHU216HW,2013-01-05 16:05:00,
2013-01-05 10:10:00,32.4,27.3,30.47,North,0,0.0,0.0,81,0.01,,,0.01,WUHU216HW,2013-01-05 16:10:00,
2013-01-05 10:15:00,33.3,28.1,30.47,North,0,0.0,0.0,81,0.01,,,0.01,WUHU216HW,2013-01-05 16:15:00,
2013-01-05 10:20:00,34.0,28.4,30.48,North,0,0.0,0.0,80,0.01,,,0.01,WUHU216HW,2013-01-05 16:20:00,
2013-01-05 10:25:00,34.4,28.2,30.48,North,0,0.0,0.0,78,0.01,,,0.01,WUHU216HW,2013-01-05 16:25:00,
2013-01-05 10:30:00,34.7,28.5,30.48,North,0,0.0,0.0,78,0.01,,,0.01,WUHU216HW,2013-01-05 16:30:00,
2013-01-05 10:35:00,34.9,28.7,30.47,North,0,0.0,0.0,78,0.01,,,0.01,WUHU216HW,2013-01-05 16:35:00,
2013-01-05 10:40:00,35.1,28.9,30.47,North,0,0.0,0.0,78,0.01,,,0.01,WUHU216HW,2013-01-05 16:40:00,
2013-01-05 10:45:00,35.1,28.9,30.47,North,0,0.0,0.0,78,0.01,,,0.01,WUHU216HW,2013-01-05 16:45:00,
2013-01-05 10:50:00,35.5,28.6,30.46,North,0,0.0,0.0,76,0.00,,,0.01,WUHU216HW,2013-01-05 16:50:00,
2013-01-05 10:55:00,35.6,28.8,30.46,North,0,0.0,0.0,76,0.00,,,0.01,WUHU216HW,2013-01-05 16:55:00,
2013-01-05 11:00:00,35.6,29.1,30.45,North,0,0.0,0.0,77,0.00,,,0.01,WUHU216HW,2013-01-05 17:00:00,
2013-01-05 11:05:00,36.0,28.4,30.45,North,0,0.0,0.0,74,0.00,,,0.01,WUHU216HW,2013-01-05 17:05:00,
2013-01-05 11:10:00,36.4,29.2,30.44,North,0,0.0,0.0,75,0.00,,,0.01,WUHU216HW,2013-01-05 17:10:00,
2013-01-05 11:15:00,36.4,29.2,30.44,North,0,0.0,0.0,75,0.00,,,0.01,WUHU216HW,2013-01-05 17:15:00,
2013-01-05 11:25:00,37.3,29.4,30.43,North,0,0.0,0.0,73,0.00,,,0.01,WUHU216HW,2013-01-05 17:25:00,
2013-01-05 11:30:00,37.3,29.7,30.43,North,0,0.0,0.0,74,0.00,,,0.01,WUHU216HW,2013-01-05 17:30:00,
2013-01-05 11:35:00,37.4,30.2,30.43,North,0,0.0,0.0,75,0.00,,,0.01,WUHU216HW,2013-01-05 17:35:00,
2013-01-05 11:40:00,37.4,30.2,30.43,North,0,0.0,0.0,75,0.00,,,0.01,WUHU216HW,2013-01-05 17:40:00,
2013-01-05 11:45:00,37.3,30.4,30.43,North,0,0.0,0.0,76,0.00,,,0.01,WUHU216HW,2013-01-05 17:45:00,
2013-01-05 11:50:00,37.3,30.1,30.43,North,0,0.0,0.0,75,0.00,,,0.01,WUHU216HW,2013-01-05 17:50:00,
2013-01-05 12:01:00,36.5,29.7,30.42,North,0,0.0,0.0,76,0.00,,,0.01,WUHU216HW,2013-01-05 18:01:00,
2013-01-05 12:06:00,36.5,29.7,30.42,North,0,0.0,0.0,76,0.00,,,0.01,WUHU216HW,2013-01-05 18:06:00,
2013-01-05 12:11:00,37.1,30.5,30.40,North,0,0.0,0.0,77,0.01,,,0.01,WUHU216HW,2013-01-05 18:11:00,
2013-01-05 12:16:00,37.1,30.5,30.41,North,0,0.0,0.0,77,0.01,,,0.02,WUHU216HW,2013-01-05 18:16:00,
2013-01-05 12:21:00,37.3,31.1,30.40,North,0,0.0,0.0,78,0.01,,,0.02,WUHU216HW,2013-01-05 18:21:00,
2013-01-05 12:26:00,37.3,31.1,30.40,North,0,0.0,0.0,78,0.01,,,0.02,WUHU216HW,2013-01-05 18:26:00,
2013-01-05 12:31:00,37.1,30.9,30.39,North,0,0.0,0.0,78,0.01,,,0.02,WUHU216HW,2013-01-05 18:31:00,
2013-01-05 12:36:00,37.1,30.9,30.39,North,0,0.0,0.0,78,0.01,,,0.02,WUHU216HW,2013-01-05 18:36:00,
2013-01-05 12:41:00,36.7,31.1,30.38,North,0,0.0,0.0,80,0.01,,,0.02,WUHU216HW,2013-01-05 18:41:00,
2013-01-05 12:46:00,36.7,31.1,30.38,North,0,0.0,0.0,80,0.01,,,0.02,WUHU216HW,2013-01-05 18:46:00,
2013-01-05 12:51:00,36.4,31.3,30.38,North,0,0.0,0.0,82,0.02,,,0.03,WUHU216HW,2013-01-05 18:51:00,
2013-01-05 12:56:00,36.2,31.1,30.37,North,0,0.0,0.0,82,0.02,,,0.03,WUHU216HW,2013-01-05 18:56:00,
2013-01-05 13:01:00,36.0,31.6,30.36,North,0,0.0,0.0,84,0.02,,,0.03,WUHU216HW,2013-01-05 19:01:00,
2013-01-05 13:06:00,35.8,31.4,30.36,North,0,0.0,0.0,84,0.02,,,0.03,WUHU216HW,2013-01-05 19:06:00,
2013-01-05 13:11:00,36.0,31.9,30.35,North,0,0.0,0.0,85,0.02,,,0.04,WUHU216HW,2013-01-05 19:11:00,
2013-01-05 13:16:00,35.8,32.0,30.35,North,0,0.0,0.0,86,0.02,,,0.04,WUHU216HW,2013-01-05 19:16:00,
2013-01-05 13:21:00,35.6,31.8,30.35,North,0,0.0,0.0,86,0.02,,,0.04,WUHU216HW,2013-01-05 19:21:00,
2013-01-05 13:26:00,35.6,31.5,30.35,North,0,0.0,0.0,85,0.02,,,0.04,WUHU216HW,2013-01-05 19:26:00,
2013-01-05 13:31:00,35.6,31.8,30.35,North,0,0.0,0.0,86,0.02,,,0.04,WUHU216HW,2013-01-05 19:31:00,
2013-01-05 13:36:00,35.6,31.8,30.34,North,0,0.0,0.0,86,0.02,,,0.04,WUHU216HW,2013-01-05 19:36:00,
2013-01-05 13:41:00,35.6,32.0,30.34,North,0,0.0,0.0,87,0.03,,,0.04,WUHU216HW,2013-01-05 19:41:00,
2013-01-05 13:46:00,35.6,31.8,30.34,North,0,0.0,0.0,86,0.02,,,0.05,WUHU216HW,2013-01-05 19:46:00,
2013-01-05 13:51:00,36.0,32.4,30.34,North,0,0.0,0.0,87,0.02,,,0.05,WUHU216HW,2013-01-05 19:51:00,
2013-01-05 13:56:00,36.2,32.6,30.33,North,0,0.0,0.0,87,0.02,,,0.05,WUHU216HW,2013-01-05 19:56:00,
2013-01-05 14:01:00,36.2,32.6,30.33,North,0,0.0,0.0,87,0.02,,,0.05,WUHU216HW,2013-01-05 20:01:00,
2013-01-05 14:06:00,36.4,32.8,30.33,North,0,0.0,0.0,87,0.01,,,0.05,WUHU216HW,2013-01-05 20:06:00,
2013-01-05 14:11:00,36.5,32.9,30.33,North,0,0.0,0.0,87,0.01,,,0.05,WUHU216HW,2013-01-05 20:11:00,
2013-01-05 14:16:00,36.7,33.1,30.33,North,0,0.0,0.0,87,0.01,,,0.05,WUHU216HW,2013-01-05 20:16:00,
2013-01-05 14:21:00,37.1,33.2,30.33,North,0,0.0,0.0,86,0.02,,,0.06,WUHU216HW,2013-01-05 20:21:00,
2013-01-05 14:26:00,37.3,33.4,30.32,North,0,0.0,0.0,86,0.02,,,0.06,WUHU216HW,2013-01-05 20:26:00,
2013-01-05 14:31:00,37.4,33.6,30.32,North,0,0.0,0.0,86,0.02,,,0.06,WUHU216HW,2013-01-05 20:31:00,
2013-01-05 14:36:00,37.4,33.3,30.32,North,0,0.0,0.0,85,0.02,,,0.06,WUHU216HW,2013-01-05 20:36:00,
2013-01-05 14:41:00,37.6,33.5,30.32,North,0,0.0,0.0,85,0.01,,,0.06,WUHU216HW,2013-01-05 20:41:00,
2013-01-05 14:46:00,37.6,33.2,30.33,North,0,0.0,0.0,84,0.01,,,0.06,WUHU216HW,2013-01-05 20:46:00,
2013-01-05 14:51:00,37.8,33.4,30.33,North,0,0.0,0.0,84,0.01,,,0.06,WUHU216HW,2013-01-05 20:51:00,
2013-01-05 14:56:00,37.6,33.2,30.33,North,0,0.0,0.0,84,0.01,,,0.06,WUHU216HW,2013-01-05 20:56:00,
2013-01-05 15:01:00,37.6,33.2,30.33,North,0,0.0,0.0,84,0.01,,,0.06,WUHU216HW,2013-01-05 21:01:00,
2013-01-05 15:06:00,37.4,33.0,30.32,North,0,0.0,0.0,84,0.01,,,0.06,WUHU216HW,2013-01-05 21:06:00,
2013-01-05 15:11:00,37.8,33.4,30.33,North,0,0.0,0.0,84,0.01,,,0.06,WUHU216HW,2013-01-05 21:11:00,
2013-01-05 15:16:00,37.8,33.4,30.32,North,0,0.0,0.0,84,0.00,,,0.06,WUHU216HW,2013-01-05 21:16:00,
2013-01-05 15:21:00,37.4,33.0,30.33,North,0,0.0,0.0,84,0.01,,,0.06,WUHU216HW,2013-01-05 21:21:00,
2013-01-05 15:26:00,37.1,32.7,30.32,North,0,0.0,0.0,84,0.01,,,0.07,WUHU216HW,2013-01-05 21:26:00,
2013-01-05 15:31:00,36.9,32.5,30.32,North,0,0.0,0.0,84,0.01,,,0.07,WUHU216HW,2013-01-05 21:31:00,
2013-01-05 15:36:00,36.9,32.5,30.32,North,0,0.0,0.0,84,0.01,,,0.07,WUHU216HW,2013-01-05 21:36:00,
2013-01-05 15:41:00,36.7,32.3,30.32,North,0,0.0,0.0,84,0.01,,,0.07,WUHU216HW,2013-01-05 21:41:00,
2013-01-05 15:46:00,36.7,32.3,30.33,North,0,0.0,0.0,84,0.01,,,0.07,WUHU216HW,2013-01-05 21:46:00,
2013-01-05 15:51:00,36.5,32.1,30.33,North,0,0.0,0.0,84,0.01,,,0.07,WUHU216HW,2013-01-05 21:51:00,
2013-01-05 15:56:00,36.4,32.2,30.32,North,0,0.0,0.0,85,0.01,,,0.07,WUHU216HW,2013-01-05 21:56:00,
2013-01-05 16:01:00,36.4,32.2,30.31,North,0,0.0,0.0,85,0.01,,,0.07,WUHU216HW,2013-01-05 22:01:00,
2013-01-05 16:06:00,36.4,32.2,30.31,North,0,0.0,0.0,85,0.01,,,0.07,WUHU216HW,2013-01-05 22:06:00,
2013-01-05 16:11:00,36.2,32.0,30.31,North,0,0.0,0.0,85,0.01,,,0.07,WUHU216HW,2013-01-05 22:11:00,
2013-01-05 16:16:00,36.2,32.0,30.31,North,0,0.0,0.0,85,0.01,,,0.07,WUHU216HW,2013-01-05 22:16:00,
2013-01-05 16:21:00,36.0,31.9,30.31,North,0,0.0,0.0,85,0.00,,,0.07,WUHU216HW,2013-01-05 22:21:00,
2013-01-05 16:26:00,36.0,31.9,30.31,North,0,0.0,0.0,85,0.00,,,0.07,WUHU216HW,2013-01-05 22:26:00,
2013-01-05 16:31:00,36.0,32.1,30.30,North,0,0.0,0.0,86,0.00,,,0.07,WUHU216HW,2013-01-05 22:31:00,
2013-01-05 16:36:00,35.8,32.0,30.30,North,0,0.0,0.0,86,0.00,,,0.07,WUHU216HW,2013-01-05 22:36:00,
2013-01-05 16:41:00,35.6,31.5,30.31,North,0,0.0,0.0,85,0.00,,,0.07,WUHU216HW,2013-01-05 22:41:00,
2013-01-05 16:46:00,35.6,31.5,30.30,North,0,0.0,0.0,85,0.00,,,0.07,WUHU216HW,2013-01-05 22:46:00,
2013-01-05 16:51:00,35.6,31.5,30.30,North,0,0.0,0.0,85,0.00,,,0.07,WUHU216HW,2013-01-05 22:51:00,
2013-01-05 16:56:00,35.6,31.5,30.30,North,0,0.0,0.0,85,0.00,,,0.07,WUHU216HW,2013-01-05 22:56:00,
2013-01-05 17:01:00,35.6,31.8,30.31,North,0,0.0,0.0,86,0.00,,,0.07,WUHU216HW,2013-01-05 23:01:00,
2013-01-05 17:06:00,35.5,31.3,30.31,North,0,0.0,0.0,85,0.00,,,0.07,WUHU216HW,2013-01-05 23:06:00,
2013-01-05 17:11:00,35.5,31.3,30.32,North,0,0.0,0.0,85,0.00,,,0.07,WUHU216HW,2013-01-05 23:11:00,
2013-01-05 17:16:00,35.5,31.6,30.31,North,0,0.0,0.0,86,0.00,,,0.07,WUHU216HW,2013-01-05 23:16:00,
2013-01-05 17:21:00,35.5,31.6,30.31,North,0,0.0,0.0,86,0.00,,,0.07,WUHU216HW,2013-01-05 23:21:00,
2013-01-05 17:26:00,35.5,31.6,30.31,North,0,0.0,0.0,86,0.00,,,0.07,WUHU216HW,2013-01-05 23:26:00,
2013-01-05 17:31:00,35.5,31.6,30.31,North,0,0.0,0.0,86,0.00,,,0.07,WUHU216HW,2013-01-05 23:31:00,
2013-01-05 17:36:00,35.5,31.6,30.31,North,0,0.0,0.0,86,0.01,,,0.08,WUHU216HW,2013-01-05 23:36:00,
2013-01-05 17:41:00,35.5,31.6,30.31,North,0,0.0,0.0,86,0.01,,,0.08,WUHU216HW,2013-01-05 23:41:00,
2013-01-05 17:46:00,35.5,31.6,30.31,North,0,0.0,0.0,86,0.01,,,0.08,WUHU216HW,2013-01-05 23:46:00,
2013-01-05 17:51:00,35.5,31.6,30.31,North,0,0.0,0.0,86,0.01,,,0.08,WUHU216HW,2013-01-05 23:51:00,
2013-01-05 17:56:00,35.5,31.6,30.32,North,0,0.0,0.0,86,0.01,,,0.08,WUHU216HW,2013-01-05 23:56:00,
2013-01-05 18:01:00,35.5,31.6,30.31,North,0,0.0,0.0,86,0.01,,,0.08,WUHU216HW,2013-01-06 00:01:00,
2013-01-05 18:06:00,35.5,31.6,30.31,North,0,0.0,0.0,86,0.01,,,0.08,WUHU216HW,2013-01-06 00:06:00,
2013-01-05 18:11:00,35.5,31.6,30.31,North,0,0.0,0.0,86,0.01,,,0.08,WUHU216HW,2013-01-06 00:11:00,
2013-01-05 18:16:00,35.5,31.6,30.31,North,0,0.0,0.0,86,0.01,,,0.08,WUHU216HW,2013-01-06 00:16:00,
2013-01-05 18:21:00,35.5,31.6,30.30,North,0,0.0,0.0,86,0.01,,,0.08,WUHU216HW,2013-01-06 00:21:00,
2013-01-05 18:26:00,35.5,31.6,30.30,North,0,0.0,0.0,86,0.01,,,0.08,WUHU216HW,2013-01-06 00:26:00,
2013-01-05 18:31:00,35.5,31.6,30.30,North,0,0.0,0.0,86,0.00,,,0.08,WUHU216HW,2013-01-06 00:31:00,
2013-01-05 18:36:00,35.5,31.6,30.30,North,0,0.0,0.0,86,0.00,,,0.08,WUHU216HW,2013-01-06 00:36:00,
2013-01-05 18:41:00,35.5,31.6,30.30,North,0,0.0,0.0,86,0.00,,,0.08,WUHU216HW,2013-01-06 00:41:00,
2013-01-05 18:46:00,35.5,31.6,30.30,North,0,0.0,0.0,86,0.00,,,0.08,WUHU216HW,2013-01-06 00:46:00,
2013-01-05 18:51:00,35.5,31.6,30.31,North,0,0.0,0.0,86,0.00,,,0.08,WUHU216HW,2013-01-06 00:51:00,
2013-01-05 18:56:00,35.3,31.4,30.31,North,0,0.0,0.0,86,0.00,,,0.08,WUHU216HW,2013-01-06 00:56:00,
2013-01-05 19:01:00,35.3,31.4,30.31,North,0,0.0,0.0,86,0.00,,,0.08,WUHU216HW,2013-01-06 01:01:00,
2013-01-05 19:06:00,35.3,31.4,30.30,North,0,0.0,0.0,86,0.00,,,0.08,WUHU216HW,2013-01-06 01:06:00,
2013-01-05 19:11:00,35.3,31.4,30.30,North,0,0.0,0.0,86,0.00,,,0.08,WUHU216HW,2013-01-06 01:11:00,
2013-01-05 19:16:00,35.1,31.2,30.30,North,0,0.0,0.0,86,0.00,,,0.08,WUHU216HW,2013-01-06 01:16:00,
2013-01-05 19:21:00,35.1,31.2,30.30,North,0,0.0,0.0,86,0.00,,,0.08,WUHU216HW,2013-01-06 01:21:00,
2013-01-05 19:26:00,35.3,31.4,30.30,North,0,0.0,0.0,86,0.00,,,0.08,WUHU216HW,2013-01-06 01:26:00,
2013-01-05 19:31:00,35.3,31.4,30.30,North,0,0.0,0.0,86,0.00,,,0.08,WUHU216HW,2013-01-06 01:31:00,
2013-01-05 19:36:00,35.1,31.2,30.30,North,0,0.0,0.0,86,0.00,,,0.08,WUHU216HW,2013-01-06 01:36:00,
2013-01-05 19:41:00,35.3,31.4,30.30,North,0,0.0,0.0,86,0.00,,,0.08,WUHU216HW,2013-01-06 01:41:00,
2013-01-05 19:46:00,35.3,31.4,30.30,North,0,0.0,0.0,86,0.00,,,0.08,WUHU216HW,2013-01-06 01:46:00,
2013-01-05 19:51:00,35.1,31.2,30.30,North,0,0.0,0.0,86,0.00,,,0.08,WUHU216HW,2013-01-06 01:51:00,
2013-01-05 19:56:00,35.1,31.2,30.30,North,0,0.0,0.0,86,0.00,,,0.08,WUHU216HW,2013-01-06 01:56:00,
2013-01-05 20:01:00,35.1,31.2,30.30,North,0,0.0,0.0,86,0.00,,,0.08,WUHU216HW,2013-01-06 02:01:00,
2013-01-05 20:06:00,35.1,31.5,30.30,North,0,0.0,0.0,87,0.00,,,0.08,WUHU216HW,2013-01-06 02:06:00,
2013-01-05 20:11:00,35.1,31.5,30.30,North,0,0.0,0.0,87,0.00,,,0.08,WUHU216HW,2013-01-06 02:11:00,
2013-01-05 20:16:00,35.1,31.2,30.30,North,0,0.0,0.0,86,0.00,,,0.08,WUHU216HW,2013-01-06 02:16:00,
2013-01-05 20:21:00,35.1,31.2,30.30,North,0,0.0,0.0,86,0.00,,,0.08,WUHU216HW,2013-01-06 02:21:00,
2013-01-05 20:26:00,35.1,31.2,30.30,North,0,0.0,0.0,86,0.00,,,0.08,WUHU216HW,2013-01-06 02:26:00,
2013-01-05 20:31:00,35.1,31.2,30.30,North,0,0.0,0.0,86,0.00,,,0.08,WUHU216HW,2013-01-06 02:31:00,
2013-01-05 20:36:00,35.1,31.5,30.29,North,0,0.0,0.0,87,0.00,,,0.08,WUHU216HW,2013-01-06 02:36:00,
2013-01-05 20:41:00,35.1,31.2,30.29,North,0,0.0,0.0,86,0.00,,,0.08,WUHU216HW,2013-01-06 02:41:00,
2013-01-05 20:46:00,35.1,31.5,30.29,North,0,0.0,0.0,87,0.00,,,0.08,WUHU216HW,2013-01-06 02:46:00,
2013-01-05 20:51:00,35.1,31.5,30.29,North,0,0.0,0.0,87,0.00,,,0.08,WUHU216HW,2013-01-06 02:51:00,
2013-01-05 20:56:00,34.9,31.3,30.29,North,0,0.0,0.0,87,0.00,,,0.08,WUHU216HW,2013-01-06 02:56:00,
2013-01-05 21:01:00,34.9,31.3,30.29,North,0,0.0,0.0,87,0.00,,,0.08,WUHU216HW,2013-01-06 03:01:00,
2013-01-05 21:06:00,34.9,31.3,30.29,North,0,0.0,0.0,87,0.00,,,0.08,WUHU216HW,2013-01-06 03:06:00,
2013-01-05 21:11:00,35.1,31.5,30.29,North,0,0.0,0.0,87,0.00,,,0.08,WUHU216HW,2013-01-06 03:11:00,
2013-01-05 21:16:00,35.1,31.5,30.29,North,0,0.0,0.0,87,0.00,,,0.08,WUHU216HW,2013-01-06 03:16:00,
2013-01-05 21:21:00,35.1,31.5,30.28,North,0,0.0,0.0,87,0.00,,,0.08,WUHU216HW,2013-01-06 03:21:00,
2013-01-05 21:26:00,34.9,31.3,30.28,North,0,0.0,0.0,87,0.00,,,0.08,WUHU216HW,2013-01-06 03:26:00,
2013-01-05 21:31:00,34.9,31.3,30.28,North,0,0.0,0.0,87,0.00,,,0.08,WUHU216HW,2013-01-06 03:31:00,
2013-01-05 21:36:00,35.1,31.5,30.28,North,0,0.0,0.0,87,0.00,,,0.08,WUHU216HW,2013-01-06 03:36:00,
2013-01-05 21:41:00,35.1,31.5,30.28,North,0,0.0,0.0,87,0.00,,,0.08,WUHU216HW,2013-01-06 03:41:00,
2013-01-05 21:46:00,35.1,31.5,30.28,North,0,0.0,0.0,87,0.00,,,0.08,WUHU216HW,2013-01-06 03:46:00,
2013-01-05 21:51:00,35.1,31.5,30.27,North,0,0.0,0.0,87,0.00,,,0.08,WUHU216HW,2013-01-06 03:51:00,
2013-01-05 21:56:00,35.1,31.5,30.27,North,0,0.0,0.0,87,0.00,,,0.08,WUHU216HW,2013-01-06 03:56:00,
2013-01-05 22:01:00,35.1,31.5,30.27,North,0,0.0,0.0,87,0.00,,,0.08,WUHU216HW,2013-01-06 04:01:00,
2013-01-05 22:06:00,35.1,31.5,30.27,North,0,0.0,0.0,87,0.00,,,0.08,WUHU216HW,2013-01-06 04:06:00,
2013-01-05 22:11:00,35.1,31.5,30.27,North,0,0.0,0.0,87,0.00,,,0.08,WUHU216HW,2013-01-06 04:11:00,
2013-01-05 22:16:00,35.1,31.5,30.27,North,0,0.0,0.0,87,0.00,,,0.08,WUHU216HW,2013-01-06 04:16:00,
2013-01-05 22:21:00,35.1,31.5,30.27,North,0,0.0,0.0,87,0.00,,,0.08,WUHU216HW,2013-01-06 04:21:00,
2013-01-05 22:26:00,34.9,31.3,30.27,North,0,0.0,0.0,87,0.00,,,0.08,WUHU216HW,2013-01-06 04:26:00,
2013-01-05 22:31:00,34.9,31.3,30.27,North,0,0.0,0.0,87,0.00,,,0.08,WUHU216HW,2013-01-06 04:31:00,
2013-01-05 22:36:00,34.9,31.3,30.26,North,0,0.0,0.0,87,0.00,,,0.08,WUHU216HW,2013-01-06 04:36:00,
2013-01-05 22:41:00,34.9,31.3,30.27,North,0,0.0,0.0,87,0.00,,,0.08,WUHU216HW,2013-01-06 04:41:00,
2013-01-05 22:46:00,34.9,31.3,30.27,North,0,0.0,0.0,87,0.00,,,0.08,WUHU216HW,2013-01-06 04:46:00,
2013-01-05 22:51:00,34.9,31.3,30.27,North,0,0.0,0.0,87,0.00,,,0.08,WUHU216HW,2013-01-06 04:51:00,
2013-01-05 22:56:00,34.9,31.3,30.27,North,0,0.0,0.0,87,0.00,,,0.08,WUHU216HW,2013-01-06 04:56:00,
2013-01-05 23:00:00,34.9,31.3,30.27,North,0,0.0,0.0,87,0.00,,,0.08,WUHU216HW,2013-01-06 05:00:00,
2013-01-05 23:02:00,34.9,31.3,30.26,North,0,0.0,0.0,87,0.00,,,0.08,WUHU216HW,2013-01-06 05:02:00,
2013-01-05 23:03:00,34.9,31.3,30.27,North,0,0.0,0.0,87,0.00,,,0.08,WUHU216HW,2013-01-06 05:03:00,
2013-01-05 23:08:00,34.9,31.1,30.26,North,0,0.0,0.0,86,0.00,,,0.08,WUHU216HW,2013-01-06 05:08:00,
2013-01-05 23:13:00,34.9,31.3,30.27,North,0,0.0,0.0,87,0.00,,,0.08,WUHU216HW,2013-01-06 05:13:00,
2013-01-05 23:18:00,34.9,31.3,30.27,North,0,0.0,0.0,87,0.00,,,0.08,WUHU216HW,2013-01-06 05:18:00,